Terminal Aerodrome Forecast
Issued by NWS

Home | Current Version | Previous Version | Text Only | Print | Product List | Glossary On
Versions: 1 2 3 4 5 6 7 8 9 10 11 12 13 14
933
FTUS45 KMSO 091127
TAFSMN
TAF
KSMN 091127Z 0912/1012 VRB03KT 6SM -SHSN BKN050 OVC080
     FM091800 VRB03KT P6SM VCSH BKN050
     FM092000 VRB03KT 3SM -SN BKN025 OVC040
      AMD LTD TO CLD VIS AND WIND=

USA.gov is the U.S. government's official web portal to all federal, state and local government web resources and services.